Jorge Hernandez

Chief Scout - Union Magdalena
4 Jun 2028
Sunday
Process

Personality

Adaptability (8) Ambition (3) Controversy (1) Loyalty (6) Pressure (14) Professionalism (19) Sportsmanship (14) Temperament (17)

Profile

Coaching Style Democratic
License Continental C
Determination 3
Man Management 4
Motivating 10
Discipline 9
Job Satisfaction
100%
Fatigue
0%
Role Chief Scout
Wage 50.4K p/w
Contract 14.03.2029

Performance

Behaviour Good
Training Effectiveness
29%
Player Development
55%
Injury Prevention
40%
Tactical Implementation
20%

Recent Events

Attended a recruitment meeting 7d ago
Attended a recruitment meeting 14d ago
Attended a recruitment meeting 21d ago
Attended a recruitment meeting 28d ago
Attended a recruitment meeting 35d ago
Attended a recruitment meeting 42d ago
Attended a recruitment meeting 49d ago
Attended a recruitment meeting 56d ago

Currently Monitoring

94
Player Club Status Ability Confidence Watched Last Observed Latest Vote
César Bravo Barranquilla Report Ready 94 / 86 69% 1 02.06.2028 -
Matty Stevens AFC Wimbledon Active 90 / 97 40% 6 30.05.2027 -
Patrick Cutrone Monza Active 136 / 126 40% 4 27.05.2027 -
Alassana Jatta Notts County Active 108 / 114 40% 1 23.05.2027 -
Ekain Orobengoa Real Sociedad Active 111 / 107 40% 3 22.05.2027 -
John Yeboah Venezia Active 118 / 131 40% 2 22.05.2027 -
Richard Koné Queens Park Rangers Active 113 / 117 40% 1 21.05.2027 -
Don Bolsius Ascoli Active 106 / 98 40% 1 20.05.2027 -
Rui Costa Port Vale Active 100 / 94 40% 3 15.05.2027 -
Filippo Distefano Empoli Active 127 / 125 40% 1 15.05.2027 -
Tyreece Campbell Charlton Athletic Active 121 / 116 40% 2 13.05.2027 -
Callum Lang Preston Active 111 / 123 40% 1 13.05.2027 -
Samuel Kalu Botev Plovdiv Active 127 / 125 40% 5 12.05.2027 -
Elijah Adebayo Luton Town Active 124 / 126 40% 1 11.05.2027 -
Ioannis Pittas CSKA Sofia Active 117 / 135 40% 1 06.05.2027 -
Bernat Guiu Virtus Entella Active 133 / 118 40% 1 02.05.2027 -
Ettore Gliozzi Mantova Active 131 / 114 40% 1 02.05.2027 -
Malik Mothersille Stockport County Active 109 / 100 40% 3 01.05.2027 -
Marco Tumminello Benevento Active 115 / 106 40% 2 29.04.2027 -
Stephen Humphrys Bradford City Active 108 / 120 40% 4 29.04.2027 -
Justo Giani Umraniyespor Active 116 / 133 40% 4 28.04.2027 -
Martin Sekulić Ural Active 100 / 98 40% 2 28.04.2027 -
Lorent Tolaj Plymouth Argyle Active 109 / 124 40% 3 26.04.2027 -
Sam Nombe Milton Keynes Dons Active 125 / 123 40% 3 26.04.2027 -
Federico Martínez MFK Ruzomberok Active 123 / 131 40% 2 25.04.2027 -
Aaron Drinan Swindon Town Active 101 / 85 40% 1 18.04.2027 -
Dale Taylor Blackpool Active 114 / 105 40% 4 17.04.2027 -
Aidomo Emakhu Oxford United Active 112 / 137 40% 1 14.04.2027 -
John McAtee Leyton Orient Active 120 / 98 40% 3 12.04.2027 -
Tyrese Shade Burton Albion Active 86 / 111 40% 1 12.04.2027 -
Peter Itodo Metalist Active 101 / 114 40% 2 08.04.2027 -
Simone Rabbi Ravenna Active 104 / 111 40% 2 08.04.2027 -
Alberto Cerri Cesena Active 128 / 111 40% 1 07.04.2027 -
Eric Ramírez Ankaragucu Active 127 / 115 40% 1 07.04.2027 -
Giacomo Zecca Torres Active 112 / 87 40% 1 04.04.2027 -
Kyle Wootton Stockport County Active 136 / 131 40% 2 30.03.2027 -
Will Swan Bradford City Active 94 / 111 40% 1 30.03.2027 -
Job Ochieng Real Sociedad Active 112 / 121 40% 2 26.03.2027 -
Mees Rijks Bristol Rovers Active 118 / 102 40% 1 26.03.2027 -
Egas Cacintura Akhmat Grozny Active 127 / 104 40% 1 23.03.2027 -
Oleh Kozhushko Bukovyna Active 119 / 87 40% 1 20.03.2027 -
Oleksii Hutsuliak Polissia Active 121 / 137 40% 1 18.03.2027 -
Robertino Giacomini Panserraikos Active 98 / 105 40% 1 17.03.2027 -
Moussakoye Diallo Stade Malien Active 109 / 112 40% 1 17.03.2027 -
Luca Moro Padova Active 106 / 114 40% 1 16.03.2027 -
Anatole Abang USM Alger Active 115 / 104 40% 1 15.03.2027 -
Salah Mohsen El Masry Active 113 / 124 40% 2 14.03.2027 -
Samuel Tetteh Liberty Professionals Active 104 / 91 40% 1 12.03.2027 -
Wandile Duba ASO Chlef Active 93 / 101 40% 2 10.03.2027 -
Stiven Shpendi Empoli Active 127 / 131 40% 1 10.03.2027 -
Kamran Aliev SKA Khabarovsk Active 92 / 83 40% 1 08.03.2027 -
Gonzalo Valenzuela Radnicki Nis Active 119 / 100 40% 2 07.03.2027 -
Ilja Safronov Rotor Active 105 / 110 40% 1 06.03.2027 -
Brayan Gil Baltika Active 137 / 111 40% 3 02.03.2027 -
Ondřej Lingr Korona Active 133 / 138 40% 1 01.03.2027 -
Nardin Mulahusejnović Vojvodina Active 108 / 129 40% 2 27.02.2027 -
Peter Valjent FK Senica Active 105 / 106 40% 1 23.02.2027 -
Thierry Ambrose KV Kortrijk Active 115 / 131 40% 1 22.02.2027 -
Bradley Fink Wycombe Wanderers Active 105 / 113 40% 1 16.02.2027 -
Sam Dalby Bolton Wanderers Active 125 / 114 40% 1 13.02.2027 -
Vyacheslav Grulev Nizhniy Novgorod Active 108 / 121 40% 2 12.02.2027 -
Stanislav Ivanov Arda Active 129 / 124 40% 1 06.02.2027 -
Patrick Schmidt Tarxien Rainbows Active 95 / 93 40% 1 05.02.2027 -
David Ankeye Zeleznicar Pancevo Active 113 / 119 40% 1 03.02.2027 -
Yeangel Montero Naxxar Lions Active 98 / 96 40% 1 02.02.2027 -
Antony Alonso Deportivo Riestra Active 132 / 131 40% 1 01.02.2027 -
Marezi Portsmouth Active 114 / 112 40% 1 28.11.2026 -
Marcos Cuenca Zaragoza Active 96 / 120 40% 1 26.11.2026 -
Alejandro Piedrahita Deportivo Pereira Active 131 / 127 40% 1 26.11.2026 -
Lautaro Gordillo Colegiales Active 120 / 120 40% 1 23.11.2026 -
Emiliano Saliadarre Miramar Misiones Active 107 / 113 40% 1 17.11.2026 -
Agustín Gallo Tristán Suárez Active 112 / 117 40% 1 17.11.2026 -
Lucas Varaldo Morelia Active 132 / 111 40% 2 15.11.2026 -
José Alvarado Leon Active 118 / 108 40% 1 15.11.2026 -
Favio Cabral Mitre Active 122 / 109 40% 1 12.11.2026 -
Ignacio Russo Tigre Active 119 / 124 40% 1 04.11.2026 -
Renzo Reynaga Patronato Active 108 / 104 40% 1 02.11.2026 -
Augusto Berrondo Tristán Suárez Active 103 / 117 40% 1 31.10.2026 -
José Barreto Quilmes Active 104 / 108 40% 1 31.10.2026 -
Wessam Abou Ali Columbus Crew Active 128 / 135 40% 1 30.10.2026 -
Mohamed-Ali Cho Hull City Active 122 / 150 40% 1 29.10.2026 -
Manuel Pagano Imotski Active 98 / 80 40% 1 27.10.2026 -
Pedro Vite Pumas UNAM Active 108 / 112 40% 1 25.10.2026 -
Ramiro Ruiz Rodríguez Atlético Tucumán Active 124 / 116 40% 1 25.10.2026 -
Santiago Sala Güemes Active 109 / 101 40% 1 25.10.2026 -
Fabrizio Sartori Independiente Rivadavia Active 119 / 126 40% 1 24.10.2026 -
Lucas Acosta Liverpool Montevideo Active 109 / 110 40% 1 22.10.2026 -
Bénie Traoré New York City Active 115 / 107 40% 1 22.10.2026 -
Santiago Toloza O'Higgins Active 122 / 115 40% 1 21.10.2026 -
Rodrigo López Pumas UNAM Active 130 / 129 40% 1 20.10.2026 -
Franco Zapiola Platense Active 124 / 127 40% 1 20.10.2026 -
Alex Luna Instituto Active 139 / 120 40% 1 18.10.2026 -
Bryan González Guadalajara Active 131 / 124 40% 1 01.08.2026 -
Giovanni González River Plate Active 129 / 134 40% 1 01.08.2026 -